Preview of NWS' New Version of Forecast
This preview is not operational and should not be used for support decisions.

Regional Weather Roundup (RWR)

Issued by National Weather Service (NWS)

                            
281 
ASUS43 KIND 200600
RWRIN 

WEATHER ROUNDUP FOR INDIANA
NATIONAL WEATHER SERVICE INDIANAPOLIS IN
200 AM EDT WED JUN 20 2018

NOTE: "FAIR" INDICATES FEW OR NO CLOUDS BELOW 12,000 FEET WITH NO
SIGNIFICANT WEATHER AND/OR OBSTRUCTIONS TO VISIBILITY.

* - STATION DOES NOT REPORT WEATHER SUCH AS PRECIPITATION OR FOG.

+ - STATION NOT QUALITY CONTROLLED BY THE NATIONAL WEATHER SERVICE.
    USE DATA WITH CAUTION...ESPECIALLY DEWPOINT AND RELATIVE
    HUMIDITY OBSERVATIONS.

INZ001>003-010>013-019-020-200700-
NORTHWEST INDIANA
  
CITY           SKY/WX    TMP DP  RH WIND       PRES   REMARKS
KNOX *+        CLOUDY    72  70  94 SW6       29.88S                  
MONTICELLO +   FAIR      71  69  95 W5        29.88F                  
6HR MIN TEMP:  71; 6HR MAX TEMP:  75;                                

RENSSELAER +   CLOUDY   N/A N/A N/A SW6       29.89S                  

$$

LMZ046-743>745-200700-
SOUTHERN LAKE MICHIGAN
  
STATION/POSITION TIME  TEMP    WIND        PRES    WAVE
                       AIR SEA DIR/SP/G            HT
                 (UTC) (F)     (DEG/KT/KT) (MB)    (FT)
BURNS HARBOR     0540   65     280/ 10/ 12 1012.5S
MICHIGAN CITY    0530   66     230/ 11/ 11   N/A
5NW MICH CITY    0550   66 70  300/  8/ 10   N/A     2

$$

INZ004-005-014>016-021>024-200700-
NORTH CENTRAL INDIANA
  
CITY           SKY/WX    TMP DP  RH WIND       PRES   REMARKS
GOSHEN         CLOUDY    72  71  97 SE5       29.90S FOG              
6HR MIN TEMP:  71; 6HR MAX TEMP:  73; 6HR PCP: TRACE;                

PERU/GRISSOM   FAIR      71  71 100 SW3       29.88F                  
6HR MIN TEMP:  70; 6HR MAX TEMP:  76; 6HR PCP:  0.31;                

SOUTH BEND     CLOUDY    71  69  93 SE8       29.89S                  
6HR MIN TEMP:  71; 6HR MAX TEMP:  73; 6HR PCP: TRACE;                

WARSAW +       CLOUDY    70  70 100 CALM      29.91R                  

$$

INZ006>009-017-018-025>027-200700-
NORTHEAST INDIANA
  
CITY           SKY/WX    TMP DP  RH WIND       PRES   REMARKS
ANGOLA *+      CLOUDY    68  59  73 SE7       29.91S                  
AUBURN +       CLOUDY    64  63  94 CALM      29.92S                  
FORT WAYNE     CLOUDY    70  70 100 NE6       29.90F                  
6HR MIN TEMP:  70; 6HR MAX TEMP:  73; 6HR PCP:  0.01;                

KENDALLVILLE + CLOUDY   N/A N/A N/A SE6       29.93R                  

$$

INZ028-029-035-036-043>045-051>053-200700-
WEST CENTRAL INDIANA
  
CITY           SKY/WX    TMP DP  RH WIND       PRES   REMARKS
CRAWFORDSVL +  FAIR      67  67 100 CALM      29.89S                  
6HR MIN TEMP:  67; 6HR MAX TEMP:  78; 6HR PCP:  0.66;                

GREENCASTLE +  FAIR      70  68  94 CALM      29.91S                  
LAFAYETTE      FAIR      70  70 100 W6        29.88F                  
6HR MIN TEMP:  70; 6HR MAX TEMP:  75; 6HR PCP:  0.05;                

TERRE HAUTE    FAIR      72  70  93 W6        29.91S                  
6HR MIN TEMP:  71; 6HR MAX TEMP:  84; 6HR PCP:  0.27;                


$$

INZ030>032-037>040-046>048-054>057-064-065-200700-
CENTRAL INDIANA
  
CITY           SKY/WX    TMP DP  RH WIND       PRES   REMARKS
ANDERSON       FAIR      71  69  93 SW5       29.90S                  
FRANKFORT +    FAIR     N/A N/A N/A CALM      29.91S                  
                                      6HR PCP:  0.14;                

GREENWOOD *+   FAIR     N/A N/A N/A S7        29.91F                  
INDIANAPOLIS   MOCLDY    71  70  96 S7        29.89F                  
6HR MIN TEMP:  71; 6HR MAX TEMP:  79; 6HR PCP:  0.04;                

-EAGLE CREEK   FAIR      72  69  90 CALM      29.88F                  
6HR MIN TEMP:  71; 6HR MAX TEMP:  78; 6HR PCP:  0.55;                

KOKOMO +       LGT RAIN  72  71  97 SW5       29.90S                  
6HR MIN TEMP:  70; 6HR MAX TEMP:  76; 6HR PCP:  0.64;                

MT COMFORT *+  FAIR      70  70 100 SW8       29.89F                  
SHELBYVILLE    FAIR      73  68  84 S9        29.89F                  
6HR MIN TEMP:  73; 6HR MAX TEMP:  82; 6HR PCP:  0.01;                


$$

INZ033-034-041-042-049-050-058-059-200700-
EAST CENTRAL INDIANA
  
CITY           SKY/WX    TMP DP  RH WIND       PRES   REMARKS
MUNCIE         FAIR      74  70  87 S7        29.87F                  
6HR MIN TEMP:  74; 6HR MAX TEMP:  77; 6HR PCP:  0.03;                

RICHMOND +     FAIR      70  70 100 SW9       29.92F                  

$$

INZ060-061-067>069-081>083-085>088-200700-
SOUTHWEST INDIANA
  
CITY           SKY/WX    TMP DP  RH WIND       PRES   REMARKS
EVANSVILLE     FAIR      75  70  84 S3        29.93F                  
6HR MIN TEMP:  75; 6HR MAX TEMP:  86;                                

HUNTINGBURG +  FAIR      75  71  87 SW3       29.93F                  
6HR MIN TEMP:  75; 6HR MAX TEMP:  85;                                


$$

INZ062-063-066-070>080-084-089>092-200700-
SOUTH CENTRAL AND SOUTHEAST INDIANA
  
CITY           SKY/WX    TMP DP  RH WIND       PRES   REMARKS
BLOOMINGTON    FAIR      71  69  93 CALM      29.90F                  
6HR MIN TEMP:  70; 6HR MAX TEMP:  73; 6HR PCP:  0.11;                

FRENCH LICK *+ FAIR      72  66  83 CALM      29.94F                  
SEYMOUR +      FAIR      73  68  83 SE3       29.92F                  

$$